User: anonymous   Login
Location: Unspecified
(0.0000°N, 0.0000°E)
Time: 19:05:31
(UTC+02:00)
Language:

Resurs 01 Rocket - Orbit

View from above orbital plane
View from above orbital plane
View from above satellite
View from above satellite

Ground track
Ground track

The orbit data is extracted from the following two-line orbital elements,

1 23343U 94074B   17296.19903167  .00000013  00000-0  93700-5 0  9998
2 23343  98.1395 334.4645 0007521  32.4283   7.7681 14.76713465235720
Epoch (UTC): 23 October 2017 04:46:36
Eccentricity: 0.0007521
inclination: 98.1395°
perigee height: 634 km
apogee height: 645 km
right ascension of ascending node: 334.4645°
argument of perigee: 32.4283°
revolutions per day: 14.76713465
mean anomaly at epoch: 7.7681°
orbit number at epoch: 23572

The dashed part of the orbit path shows where the satellite is in the earth's shadow,  

DLR